Simultaneous Nadir Overpasses (SNOs) Predictions

Prediction of SNOs between GOES-17 and METOP-C Satellite Orbit:

Table of predicted SNOs for the next 14.0 days since TLE Epoch: 2/28/2025
Index Date Time (GOES-17) GOES-17 Lat,Lon METOP-C Lat,Lon Distance(km) Time Diff (sec)
1 03/02/2025 04:28:36 -0.02,-104.40 0.03,-104.08 36.44 80
2 03/03/2025 16:47:25 0.02,-104.42 0.97,-108.63 479.60 80
3 03/04/2025 16:24:05 0.02,-104.43 -0.16,-103.64 90.15 80
4 03/06/2025 04:43:03 -0.02,-104.41 -0.88,-108.22 435.07 80
5 03/07/2025 04:25:03 -0.02,-104.41 0.26,-103.23 134.82 80
6 03/08/2025 16:43:51 0.01,-104.43 0.78,-107.77 381.47 80
7 03/09/2025 16:20:31 0.01,-104.43 -0.36,-102.78 188.39 80
8 03/11/2025 04:39:29 -0.00,-104.42 -0.65,-107.37 336.42 80
9 03/12/2025 04:21:27 -0.00,-104.42 0.45,-102.37 234.07 80
10 03/13/2025 16:40:16 0.00,-104.46 0.57,-106.92 280.84 80
11 03/14/2025 16:16:55 -0.00,-104.46 -0.59,-101.93 289.79 80
